7 * 24
多渠道服务支持
STARLINK-35970是美国太空探索技术公司SpaceX星链星座的一颗卫星,于2025年11月23日发射升空。星链项目旨在构建全球卫星互联网星座,为全球范围提供高速低延迟的宽带网络服务,这颗卫星将加入现有星座网络,进一步提升星链系统的覆盖能力与服务稳定性。
美国
(US)
| 数据来源 | 国际轨道数据 | AOE轨道数据 |
| 星历时间 | 2026-03-13T21:29:01+0800 15小时前 查看轨道信息 | 2026-03-11T08:00:00+0800 3天前 查看轨道信息 |
| 半长轴 | 6853.349km | 6853.368km |
| 偏心率 | 0.0000996 | 0.0001474 |
| 轨道倾角 | 53.158° | 53.158° |
| 近地点辐角 | 72.488° | 64.484° |
| 升交点赤经 | 121.649° | 133.549° |
| 平近点角 | 287.623° | 215.473° |
| 近地点 | 474.529km | 474.22km |
| 远地点 | 475.895km | 476.242km |
| 周期 | 94.105分钟 | 94.106分钟 |
| 每日圈数 | 15.302011 | 15.301949 |